Regional Weather Roundup
Issued by NWS Green Bay, WI

Home | Current Version | Previous Version | Text Only | Print | Product List | Glossary On
Versions: 1 2 3 4 5 6 7 8 9 10 11 12 13 14 15 16 17 18 19 20 21 22 23 24 25 26 27 28 29 30 31 32 33 34 35 36 37 38 39 40 41 42 43 44 45 46 47 48 49 50
000
ASUS43 KGRB 012110
RWRGRB

NORTH-CENTRAL AND NORTHEAST WISCONSIN REGIONAL WEATHER ROUNDUP
NATIONAL WEATHER SERVICE GREEN BAY WI
400 PM CDT MON SEP 01 2014

WIZ005-009-010>012-018-019-012200-
NORTH CENTRAL WISCONSIN

CITY           SKY/WX    TMP DP  RH WIND       PRES   REMARKS
IRONWOOD       NOT AVBL
MANITOWISH WTR MOSUNNY   70  57  64 W12G20    29.68R
ARBOR VITAE    MOSUNNY   72  60  65 W14       29.68R
EAGLE RIVER    PTSUNNY   70  57  64 W13       29.67R
LAND O LAKES   MOSUNNY   69  61  74 W7        29.68R
RHINELANDER    SUNNY     71  57  61 W14G20    29.68S
PHILLIPS       MOSUNNY   71  55  56 W8        29.69S
ANTIGO         PTSUNNY   71  62  74 W10G16    29.68S
TOMAHAWK       MOSUNNY   70  58  67 W10       29.69R
MERRILL        MOSUNNY   74  59  59 NW12      29.68S
$$

WIZ013-073-012200-
NORTHEAST WISCONSIN

CITY           SKY/WX    TMP DP  RH WIND       PRES   REMARKS
IRON MOUNTAIN  SUNNY     72  63  73 W9        29.62S
MARINETTE      MOSUNNY   73  64  73 W9        29.62S
OCONTO         PTSUNNY   73  66  80 SW9G17    29.64S
$$

WIZ017-030-035>037-045-012200-
CENTRAL WISCONSIN

CITY           SKY/WX    TMP DP  RH WIND       PRES   REMARKS
MEDFORD        MOSUNNY   71  58  62 W13G22    29.70S
WAUSAU         PTSUNNY   74  62  66 W12G21    29.67S
MOSINEE        PTSUNNY   73  63  68 W13G20    29.70S
MARSHFIELD     MOSUNNY   74  62  66 W14       29.70R
WISC RAPIDS    PTSUNNY   75  62  64 W17G23    29.71S
STEVENS POINT  PTSUNNY   72  60  66 W10G18    29.69S
WAUPACA        LGT RAIN  75  65  71 W9        29.68S
SHAWANO        NOT AVBL
CLINTONVILLE   PTSUNNY   73  63  68 W10G16    29.66S
$$

WIZ038-039-048-051-012200-
FOX VALLEY

CITY           SKY/WX    TMP DP  RH WIND       PRES   REMARKS
NWS GREEN BAY  CLOUDY    73  66  78 SW10G21   29.67S
APPLETON       PTSUNNY   73  64  73 W16       29.69F
OSHKOSH        PTSUNNY   75  66  73 W12G17    29.68F
FOND DU LAC    PTSUNNY   75  65  70 SW15G21   29.70S
$$

WIZ022-050-052-012200-
EAST CENTRAL WISCONSIN

CITY           SKY/WX    TMP DP  RH WIND       PRES   REMARKS
STURGEON BAY   CLOUDY    72  64  78 W16       29.66S
MANITOWOC      CLOUDY    74  65  73 W15       29.68S
SHEBOYGAN      CLOUDY    75  64  68 W18G24    29.70R
$$

LMZ563-521-522-541>543-012200-
LAKESHORE

STATION/POSITION TIME  TEMP    WIND        PRES    VSBY  WAVE
                       AIR SEA DIR/SP/G                  HT/PER
                 (UTC) (F)     (DEG/KT/KT) (MB)    (MI)  (FT/S)
SHEBOYGAN LKSHOR 2100   75 57  270/ 17/ 19 1005.4R
KEWAUNEE LKSHORE 2100   73     250/  9/ 14 1003.8S
NORTHPORT PIER   2100   74     250/  8/ 14 1003.4S
N MID LAKE BUOY  2100   67 65  230/ 12/ 14 1003.1R         3/ 5
S GREEN BAY BUOY 2100   71     VRB 16/ 19  1005.1R
STURGEON BAY CG  2100   72 57  270/  8     1005.6      6   2
CHAMBERS ISLAND  2100   73     200/  6/ 11 1003.4F
MENOMINEE LKSHOR 2100   74     240/  8/ 14 1003.9S
$$


USA.gov is the U.S. government's official web portal to all federal, state and local government web resources and services.